Weather History for Antwerp, Belgium

Change the Weather History Date:

Tuesday, December 11, 2012

  Actual Average Record
Temperature  
Mean Temperature 32 °F -  
Max Temperature 36 °F 42 °F 57 °F (1997)
Min Temperature 28 °F 34 °F 19 °F (2002)
Degree Days  
Heating Degree Days 33    
Moisture  
Dew Point 26 °F    
Average Humidity 73    
Maximum Humidity 87    
Minimum Humidity 54    
Precipitation  
Precipitation 0.00 in - - ()
Sea Level Pressure  
Sea Level Pressure 30.32 in    
Wind  
Wind Speed 6 mph ()    
Max Wind Speed 8 mph    
Max Gust Speed -    
Visibility 8.5 miles    
Events      
Averages and records for this station are not official NWS values.
T = Trace of Precipitation, MM = Missing Value Source: Averaged Metar Reports

Daily Weather History Graph

Daily Weather History Graph

Search for Another Location

Airport:

Trip Planner

Search our weather history database for the weather conditions in past years. The results will help you decide how hot, cold, wet, or windy it might be!

Date:

Astronomy

Dec. 11, 2012 Rise Set
Actual Time 8:36 AM CET 4:34 PM CET
Civil Twilight 7:56 AM CET 5:14 PM CET
Nautical Twilight 7:14 AM CET 5:56 PM CET
Astronomical Twilight 6:33 AM CET 6:37 PM CET
Moon 6:04 AM CET (12/11) 3:06 PM CET (12/11)
Length of Visible Light 9h 17m
Length of Day
7h 58m
Waning Crescent, 5% of the Moon is Illuminated
Dec 11
Waning Crescent
Dec 13
New
Dec 20
First Quarter
Dec 28
Full
Jan 5
Last Quarter

Hourly Weather History & Observations

Time (CET) Temp. Windchill Dew Point Humidity Pressure Visibility Wind Dir Wind Speed Gust Speed Precip Events Conditions
12:20 AM 33.8 °F 27.0 °F 24.8 °F 70% 30.21 in - NNW 8.1 mph - N/A   Clear
12:50 AM 33.8 °F 27.7 °F 24.8 °F 70% 30.21 in - NNW 6.9 mph - N/A   Clear
1:00 AM 34 °F - 24 °F 57% 30.23 in 14 mi NNW 6.7 mph - -  
1:20 AM 33.8 °F 28.6 °F 24.8 °F 70% 30.21 in - North 5.8 mph - N/A   Clear
1:50 AM 33.8 °F 28.6 °F 24.8 °F 70% 30.24 in - North 5.8 mph - N/A   Clear
2:20 AM 32.0 °F 25.6 °F 24.8 °F 75% 30.24 in - North 6.9 mph - N/A   Clear
2:50 AM 32.0 °F 25.6 °F 24.8 °F 75% 30.24 in - North 6.9 mph - N/A   Clear
3:20 AM 32.0 °F 26.4 °F 24.8 °F 75% 30.24 in - North 5.8 mph - N/A   Clear
3:50 AM 32.0 °F 26.4 °F 24.8 °F 75% 30.24 in - NNW 5.8 mph - N/A   Clear
4:00 AM 32 °F - 26 °F 68% 30.27 in 14 mi NNW 6.7 mph - -  
4:20 AM 32.0 °F 26.4 °F 24.8 °F 75% 30.24 in - NNW 5.8 mph - N/A   Clear
4:50 AM 32.0 °F 26.4 °F 24.8 °F 75% 30.24 in - NNW 5.8 mph - N/A   Clear
5:20 AM 32.0 °F 25.6 °F 24.8 °F 75% 30.27 in - North 6.9 mph - N/A   Clear
5:50 AM 32.0 °F 25.6 °F 24.8 °F 75% 30.27 in - NNW 6.9 mph - N/A   Clear
6:20 AM 32.0 °F 24.8 °F 24.8 °F 75% 30.27 in - North 8.1 mph - N/A   Clear
6:50 AM 32.0 °F 24.8 °F 24.8 °F 75% 30.30 in - North 8.1 mph - N/A   Clear
7:00 AM 32 °F - 25 °F 65% 30.31 in 16 mi North 6.7 mph - -   Clear
7:20 AM 32.0 °F 25.6 °F 24.8 °F 75% 30.30 in - North 6.9 mph - N/A   Clear
7:50 AM 30.2 °F 24.3 °F 24.8 °F 80% 30.30 in - North 5.8 mph - N/A   Clear
8:20 AM 30.2 °F 24.3 °F 24.8 °F 80% 30.33 in - NNE 5.8 mph - N/A   Clear
8:50 AM 30.2 °F 24.3 °F 24.8 °F 80% 30.33 in - NNE 5.8 mph - N/A   Clear
9:20 AM 30.2 °F 24.3 °F 26.6 °F 86% 30.33 in - NNE 5.8 mph - N/A   Clear
9:50 AM 32.0 °F 25.6 °F 26.6 °F 80% 30.33 in - NNE 6.9 mph - N/A   Clear
10:00 AM 31 °F - 27 °F 81% 30.35 in 16 mi NNE 6.7 mph - -  
10:20 AM 32.0 °F 25.6 °F 28.4 °F 87% 30.33 in - NNE 6.9 mph - N/A   Clear
10:50 AM 33.8 °F 27.0 °F 28.4 °F 81% 30.36 in - NNE 8.1 mph - N/A   Clear
11:20 AM 33.8 °F 27.7 °F 28.4 °F 81% 30.36 in - NNE 6.9 mph - N/A   Clear
11:50 AM 33.8 °F 27.0 °F 28.4 °F 81% 30.36 in 6.2 mi NNE 8.1 mph - N/A   Partly Cloudy
12:20 PM 35.6 °F 29.9 °F 28.4 °F 75% 30.36 in 6.2 mi NNE 6.9 mph - N/A   Partly Cloudy
12:50 PM 35.6 °F 29.9 °F 26.6 °F 70% 30.36 in 6.2 mi NE 6.9 mph - N/A   Partly Cloudy
1:00 PM 35 °F - 27 °F 63% 30.37 in 16 mi NE 6.7 mph - -   Scattered Clouds
1:20 PM 35.6 °F 29.9 °F 24.8 °F 65% 30.36 in 6.2 mi NNE 6.9 mph - N/A   Partly Cloudy
1:50 PM 35.6 °F 31.7 °F 24.8 °F 65% 30.36 in 6.2 mi NNE 4.6 mph - N/A   Partly Cloudy
2:20 PM 35.6 °F 30.7 °F 23.0 °F 60% 30.36 in 6.2 mi NNE 5.8 mph - N/A   Partly Cloudy
2:50 PM 35.6 °F 31.7 °F 23.0 °F 60% 30.36 in 6.2 mi NE 4.6 mph - N/A   Partly Cloudy
3:20 PM 35.6 °F - 24.8 °F 65% 30.36 in 6.2 mi Variable 2.3 mph - N/A   Partly Cloudy
3:50 PM 33.8 °F - 23.0 °F 65% 30.36 in 6.2 mi Variable 2.3 mph - N/A   Partly Cloudy
4:00 PM 34 °F - 24 °F 54% 30.37 in 19 mi NE 2.2 mph - -   Scattered Clouds
4:20 PM 33.8 °F - 23.0 °F 65% 30.36 in 6.2 mi SSE 1.2 mph - N/A   Partly Cloudy
4:50 PM 32.0 °F - 24.8 °F 75% 30.36 in 6.2 mi SE 2.3 mph - N/A   Partly Cloudy
5:20 PM 30.2 °F 26.7 °F 23.0 °F 75% 30.36 in 6.2 mi South 3.5 mph - N/A   Partly Cloudy
5:50 PM 28.4 °F - 24.8 °F 86% 30.36 in - Variable 2.3 mph - N/A   Clear
6:20 PM 33.8 °F 29.6 °F 24.8 °F 70% 30.36 in 6.2 mi SSW 4.6 mph - N/A   Mostly Cloudy
6:50 PM 33.8 °F 30.8 °F 26.6 °F 75% 30.36 in 6.2 mi SSW 3.5 mph - N/A   Scattered Clouds
7:00 PM 34 °F - 26 °F 64% 30.36 in 11 mi SSW 4.5 mph - -   Mostly Cloudy
7:20 PM 33.8 °F 29.6 °F 26.6 °F 75% 30.36 in 6.2 mi SW 4.6 mph - N/A   Scattered Clouds
7:50 PM 33.8 °F 30.8 °F 26.6 °F 75% 30.33 in - SW 3.5 mph - N/A   Clear
8:20 PM 33.8 °F 30.8 °F 26.6 °F 75% 30.33 in 6.2 mi West 3.5 mph - N/A   Scattered Clouds
8:50 PM 33.8 °F 29.6 °F 26.6 °F 75% 30.33 in 6.2 mi West 4.6 mph - N/A   Scattered Clouds
9:20 PM 33.8 °F 27.0 °F 26.6 °F 75% 30.33 in 6.2 mi WSW 8.1 mph - N/A   Scattered Clouds
9:50 PM 33.8 °F 28.6 °F 26.6 °F 75% 30.33 in - SW 5.8 mph - N/A   Clear
10:00 PM 33 °F - 26 °F 68% 30.35 in 9 mi SW 4.5 mph - -   Mostly Cloudy
10:20 PM 33.8 °F 28.6 °F 26.6 °F 75% 30.33 in - SW 5.8 mph - N/A   Clear
10:50 PM 33.8 °F 27.7 °F 26.6 °F 75% 30.33 in 6.2 mi West 6.9 mph - N/A   Mostly Cloudy
11:20 PM 33.8 °F 27.7 °F 26.6 °F 75% 30.33 in 6.2 mi WSW 6.9 mph - N/A   Mostly Cloudy
11:50 PM 33.8 °F 27.7 °F 26.6 °F 75% 30.30 in 6.2 mi WSW 6.9 mph - N/A   Mostly Cloudy